Weather History for Christmas Island, IS

Change the Weather History Date:

Sunday, May 12, 2013

  Actual Average Record
Temperature  
Mean Temperature 80 °F -  
Max Temperature 83 °F 79 °F 84 °F (1999)
Min Temperature 76 °F 73 °F 32 °F (2006)
Cooling Degree Days 14    
Growing Degree Days 30 (Base 50)    
Moisture  
Dew Point 77 °F    
Average Humidity 89    
Maximum Humidity 94    
Minimum Humidity 82    
Precipitation  
Precipitation 0.00 in - - ()
Sea Level Pressure  
Sea Level Pressure 29.85 in    
Wind  
Wind Speed 10 mph ()    
Max Wind Speed 13 mph    
Max Gust Speed -    
Visibility 6.2 miles    
Events      
Averages and records for this station are not official NWS values.
T = Trace of Precipitation, MM = Missing Value Source: Averaged Metar Reports

Daily Weather History Graph

Daily Weather History Graph

Search for Another Location

Airport:

Trip Planner

Search our weather history database for the weather conditions in past years. The results will help you decide how hot, cold, wet, or windy it might be!

Date:

Astronomy

May. 12, 2013 Rise Set
Actual Time 6:03 AM CXT 5:43 PM CXT
Civil Twilight 5:41 AM CXT 6:05 PM CXT
Nautical Twilight 5:16 AM CXT 6:30 PM CXT
Astronomical Twilight 4:50 AM CXT 6:56 PM CXT
Moon 7:43 AM CXT (5/12) 7:34 PM CXT (5/12)
Length of Visible Light 12h 23m
Length of Day
11h 39m
Waxing Crescent, 4% of the Moon is Illuminated
May 12
Waxing Crescent
May 18
First Quarter
May 25
Full
Jun 1
Last Quarter
Jun 8
New

Hourly Weather History & Observations

Time (CXT) Temp. Heat Index Dew Point Humidity Pressure Visibility Wind Dir Wind Speed Gust Speed Precip Events Conditions
12:00 AM 78 °F - 76 °F 94% 29.82 in - ESE 10.4 mph - -   Overcast
12:00 AM 78.8 °F - 77.0 °F 94% 29.86 in 6.2 mi ESE 10.4 mph - N/A   Overcast
1:00 AM 78 °F - 76 °F 91% 29.81 in - ESE 10.4 mph - -  
1:00 AM 77.0 °F - 75.2 °F 94% 29.86 in 6.2 mi ESE 10.4 mph - N/A   Overcast
2:00 AM 78.8 °F - 75.2 °F 89% 29.83 in 6.2 mi ESE 11.5 mph - N/A   Overcast
3:00 AM 78 °F - 75 °F 89% 29.80 in - ESE 10.4 mph - -  
3:00 AM 78.8 °F - 75.2 °F 89% 29.83 in 6.2 mi ESE 10.4 mph - N/A   Mostly Cloudy
4:00 AM 78 °F - 76 °F 90% 29.79 in - ESE 10.4 mph - -  
4:00 AM 78.8 °F - 75.2 °F 89% 29.83 in 6.2 mi ESE 10.4 mph - N/A   Overcast
5:00 AM 78.8 °F - 75.2 °F 89% 29.83 in 6.2 mi ESE 9.2 mph - N/A   Overcast
6:00 AM 77 °F - 74 °F 87% 29.81 in - East 8.1 mph - -   Overcast
6:00 AM 77.0 °F - 73.4 °F 89% 29.83 in 6.2 mi East 8.1 mph - N/A   Mostly Cloudy
7:00 AM 78 °F - 75 °F 89% 29.82 in - East 11.5 mph - -  
7:00 AM 78.8 °F - 75.2 °F 89% 29.86 in 6.2 mi East 11.5 mph - N/A   Overcast
7:58 AM 78.8 °F - 77.0 °F 94% 29.89 in 6.2 mi East 11.5 mph - N/A   Mostly Cloudy
8:00 AM 78.8 °F - 77.0 °F 94% 29.89 in 6.2 mi East 11.5 mph - N/A   Mostly Cloudy
9:00 AM 79 °F - 76 °F 87% 29.87 in - East 9.2 mph - -   Overcast
9:00 AM 78.8 °F - 75.2 °F 89% 29.92 in 6.2 mi East 9.2 mph - N/A   Overcast
9:25 AM 78.8 °F - 77.0 °F 94% 29.92 in 6.2 mi ESE 8.1 mph - N/A   Overcast
10:00 AM 81 °F - 76 °F 82% 29.87 in - East 10.4 mph - -  
10:00 AM 80.6 °F 87.1 °F 77.0 °F 89% 29.92 in 6.2 mi East 10.4 mph - N/A   Overcast
11:00 AM 84.2 °F 96.1 °F 78.8 °F 84% 29.89 in 6.2 mi ENE 12.7 mph - N/A   Mostly Cloudy
12:00 PM 82 °F - 79 °F 87% 29.83 in - ENE 12.7 mph - -   Overcast
12:00 PM 82.4 °F 92.4 °F 78.8 °F 89% 29.86 in 6.2 mi ENE 12.7 mph - N/A   Overcast
12:31 PM 82.4 °F 90.9 °F 77.0 °F 84% 29.86 in 6.2 mi East 11.5 mph - N/A   Mostly Cloudy
12:52 PM 82.4 °F 92.4 °F 78.8 °F 89% 29.86 in 6.2 mi East 12.7 mph - N/A   Mostly Cloudy
1:00 PM 81 °F - 78 °F 87% 29.81 in - ENE 11.5 mph - -  
1:00 PM 80.6 °F 87.1 °F 77.0 °F 89% 29.86 in 6.2 mi ENE 11.5 mph - N/A   Overcast
1:12 PM 80.6 °F 88.1 °F 78.8 °F 94% 29.86 in 6.2 mi East 10.4 mph - N/A   Overcast
1:23 PM 82.4 °F 92.4 °F 78.8 °F 89% 29.86 in 6.2 mi East 10.4 mph - N/A   Overcast
1:24 PM 82.4 °F 92.4 °F 78.8 °F 89% 29.86 in 6.2 mi East 10.4 mph - N/A   Overcast
2:00 PM 80.6 °F 87.1 °F 77.0 °F 89% 29.83 in 6.2 mi East 10.4 mph - N/A   Mostly Cloudy
3:00 PM 82 °F - 78 °F 85% 29.78 in - East 11.5 mph - -  
3:00 PM 82.4 °F 92.4 °F 78.8 °F 89% 29.80 in 6.2 mi East 11.5 mph - N/A   Mostly Cloudy
3:57 PM 80.6 °F 87.1 °F 77.0 °F 89% 29.80 in 6.2 mi ENE 11.5 mph - N/A   Mostly Cloudy
4:00 PM 81 °F - 78 °F 87% 29.78 in - ENE 11.5 mph - -  
4:00 PM 80.6 °F 87.1 °F 77.0 °F 89% 29.80 in 6.2 mi ENE 11.5 mph - N/A   Mostly Cloudy
4:14 PM 82.4 °F 92.4 °F 78.8 °F 89% 29.83 in 6.2 mi ENE 11.5 mph - N/A   Mostly Cloudy
5:00 PM 80.6 °F 87.1 °F 77.0 °F 89% 29.83 in 6.2 mi ENE 10.4 mph - N/A   Mostly Cloudy
6:00 PM 80 °F - 77 °F 88% 29.80 in - East 9.2 mph - -   Overcast
6:00 PM 80.6 °F 87.1 °F 77.0 °F 89% 29.83 in 6.2 mi East 9.2 mph - N/A   Mostly Cloudy
6:17 PM 80.6 °F 87.1 °F 77.0 °F 89% 29.83 in 6.2 mi ENE 9.2 mph - N/A   Mostly Cloudy
6:20 PM 80.6 °F 87.1 °F 77.0 °F 89% 29.83 in 6.2 mi ENE 9.2 mph - N/A   Mostly Cloudy
7:00 PM 80 °F - 77 °F 87% 29.82 in - ENE 9.2 mph - -  
7:00 PM 80.6 °F 87.1 °F 77.0 °F 89% 29.86 in 6.2 mi ENE 9.2 mph - N/A   Mostly Cloudy
8:00 PM 80.6 °F 87.1 °F 77.0 °F 89% 29.89 in 6.2 mi East 8.1 mph - N/A   Mostly Cloudy
9:00 PM 80 °F - 77 °F 89% 29.86 in - East 8.1 mph - -   Overcast
9:00 PM 80.6 °F 87.1 °F 77.0 °F 89% 29.89 in 6.2 mi East 8.1 mph - N/A   Mostly Cloudy
10:00 PM 79 °F - 76 °F 90% 29.87 in - East 8.1 mph - -  
10:00 PM 78.8 °F - 77.0 °F 94% 29.92 in 6.2 mi East 8.1 mph - N/A   Mostly Cloudy
10:03 PM 78.8 °F - 77.0 °F 94% 29.92 in 6.2 mi East 8.1 mph - N/A   Mostly Cloudy
11:00 PM 78.8 °F - 77.0 °F 94% 29.89 in 6.2 mi East 8.1 mph - N/A   Scattered Clouds